Location: Ithaca
(42.4410°N, 76.4970°W)
Time: 05:43:44
(UTC-04:00)

ISS - Visible Passes

Search period start: 04 August 2015 00:00
Search period end: 14 August 2015 00:00
Orbit: 401 x 403 km, 51.6° (Epoch: 03 August)

Date Brightness Start Highest point End Pass type
(mag) Time Alt. Az. Time Alt. Az. Time Alt. Az.
04 Aug -2.2 21:07:06 10° WSW 21:10:16 47° NNW 21:13:26 10° NE visible
04 Aug -0.5 22:44:56 10° NW 22:47:16 18° N 22:49:35 10° NE visible
05 Aug -0.1 00:22:10 10° NW 00:23:04 14° NNW 00:23:04 14° NNW visible
05 Aug -0.7 21:51:23 10° WNW 21:53:59 21° NNW 21:56:34 10° NE visible
05 Aug -0.6 23:29:04 10° NW 23:31:15 17° N 23:31:46 16° NNE visible
06 Aug -1.2 20:57:50 10° W 21:00:43 28° NNW 21:03:36 10° NE visible
06 Aug -0.4 22:35:46 10° NW 22:37:55 16° N 22:40:04 10° NE visible
07 Aug -0.1 00:12:23 10° NW 00:13:00 14° NNW 00:13:00 14° NNW visible
07 Aug -0.5 21:42:18 10° NW 21:44:34 17° N 21:46:50 10° NE visible
07 Aug -0.8 23:19:23 10° NW 23:21:40 19° N 23:21:40 19° N visible
08 Aug -0.7 20:48:43 10° WNW 20:51:14 20° NNW 20:53:44 10° NE visible
08 Aug -0.7 22:26:17 10° NW 22:28:31 17° N 22:30:19 12° NE visible
09 Aug 0.0 00:02:29 10° NW 00:02:54 13° NW 00:02:54 13° NW visible
09 Aug -0.6 21:33:00 10° NW 21:35:09 16° N 21:37:17 10° NE visible
09 Aug -1.1 23:09:30 10° NW 23:11:33 24° N 23:11:33 24° N visible
10 Aug -1.1 22:16:30 10° NW 22:19:02 21° NNE 22:20:13 17° NE visible
10 Aug 0.0 23:52:36 10° NW 23:52:47 11° NW 23:52:47 11° NW visible
11 Aug -0.8 21:23:23 10° NW 21:25:40 17° N 21:27:58 10° NE visible
11 Aug -1.3 22:59:33 10° NW 23:01:28 29° NNW 23:01:28 29° NNW visible
12 Aug -1.9 22:06:31 10° NW 22:09:26 29° NNE 22:10:09 27° NE visible
13 Aug -1.3 21:13:29 10° NW 21:16:06 22° NNE 21:18:44 10° ENE visible
13 Aug -1.5 22:49:37 10° WNW 22:51:25 30° WNW 22:51:25 30° WNW visible
